Location: El Hornillo
(40.2499°N, 5.1036°W)
Time: 06:27:53
(UTC+00:00)

Cosmos 1892 Rocket - Pass Details

Date: 05 August 2024
Orbit: 602 x 629 km, 82.5° (Epoch: 13 September)

Event Time Altitude Azimuth Distance (km) Brightness Sun altitude
Rises 20:11:34 0° 174° (S) 2,888 6.6 -8.0°
Reaches altitude 10° 20:13:50 10° 169° (S) 1,982 5.8 -8.3°
Maximum altitude 20:18:05 51° 93° (E) 777 3.7 -9.0°
Drops below altitude 10° 20:22:20 10° 18° (NNE) 1,980 6.3 -9.7°
Sets 20:24:36 0° 14° (NNE) 2,885 7.2 -10.1°
